TimeEST,TemperatureF,Dew PointF,Humidity,Sea Level PressureIn,VisibilityMPH,Wind Direction,Wind SpeedMPH,Gust SpeedMPH,PrecipitationIn,Events,Conditions,WindDirDegrees,DateUTC
12:15 AM,28.4,28.4,100,30.45,9.0,Calm,Calm,-,N/A,,Clear,0,2012-11-15 05:15:00
12:35 AM,28.4,28.4,100,30.44,10.0,Calm,Calm,-,N/A,,Clear,0,2012-11-15 05:35:00
12:55 AM,28.4,28.4,100,30.43,10.0,Calm,Calm,-,N/A,,Clear,0,2012-11-15 05:55:00
1:15 AM,28.4,28.4,100,30.42,10.0,Calm,Calm,-,N/A,,Clear,0,2012-11-15 06:15:00
1:35 AM,28.4,28.4,100,30.41,10.0,Calm,Calm,-,N/A,,Partly Cloudy,0,2012-11-15 06:35:00
1:55 AM,30.2,30.2,100,30.42,10.0,Calm,Calm,-,N/A,,Mostly Cloudy,0,2012-11-15 06:55:00
2:15 AM,30.2,28.4,93,30.42,10.0,Calm,Calm,-,N/A,,Overcast,0,2012-11-15 07:15:00
2:35 AM,30.2,30.2,100,30.41,10.0,Calm,Calm,-,N/A,,Overcast,0,2012-11-15 07:35:00
2:55 AM,32.0,32.0,100,30.41,10.0,SE,3.5,-,N/A,,Overcast,140,2012-11-15 07:55:00
3:15 AM,32.0,32.0,100,30.41,10.0,Calm,Calm,-,N/A,,Overcast,0,2012-11-15 08:15:00
3:35 AM,33.8,33.8,100,30.40,10.0,Calm,Calm,-,N/A,,Overcast,0,2012-11-15 08:35:00
3:55 AM,33.8,33.8,100,30.39,10.0,Calm,Calm,-,N/A,,Overcast,0,2012-11-15 08:55:00
4:15 AM,33.8,33.8,100,30.39,10.0,North,4.6,-,N/A,,Overcast,10,2012-11-15 09:15:00
4:35 AM,35.6,33.8,93,30.39,10.0,North,4.6,-,N/A,,Overcast,360,2012-11-15 09:35:00
4:55 AM,35.6,33.8,93,30.38,10.0,North,4.6,-,N/A,,Overcast,360,2012-11-15 09:55:00
5:15 AM,35.6,33.8,93,30.38,10.0,North,5.8,-,N/A,,Overcast,350,2012-11-15 10:15:00
5:35 AM,35.6,33.8,93,30.38,10.0,North,4.6,-,N/A,,Overcast,350,2012-11-15 10:35:00
5:55 AM,37.4,33.8,87,30.39,10.0,NNW,4.6,-,N/A,,Overcast,330,2012-11-15 10:55:00
6:15 AM,37.4,33.8,87,30.39,10.0,NNW,4.6,-,N/A,,Overcast,340,2012-11-15 11:15:00
8:45 AM,39.2,33.8,81,30.41,10.0,North,5.8,-,N/A,,Overcast,10,2012-11-15 13:45:00
8:55 AM,37.4,33.8,87,30.41,10.0,North,5.8,-,N/A,,Overcast,360,2012-11-15 13:55:00
9:45 AM,41.0,33.8,76,30.40,10.0,North,5.8,-,N/A,,Overcast,360,2012-11-15 14:45:00
10:45 AM,42.8,33.8,70,30.40,10.0,Calm,Calm,-,N/A,,Overcast,0,2012-11-15 15:45:00
11:45 AM,44.6,33.8,66,30.38,10.0,North,5.8,-,N/A,,Overcast,350,2012-11-15 16:45:00
12:45 PM,46.4,33.8,62,30.36,10.0,Calm,Calm,-,N/A,,Overcast,0,2012-11-15 17:45:00
1:45 PM,46.4,35.6,66,30.34,10.0,North,3.5,-,N/A,,Overcast,350,2012-11-15 18:45:00
2:45 PM,48.2,35.6,62,30.32,10.0,North,5.8,-,N/A,,Overcast,360,2012-11-15 19:45:00
3:55 PM,46.4,35.6,66,30.33,10.0,North,6.9,-,N/A,,Overcast,360,2012-11-15 20:55:00
6:45 PM,42.8,35.6,76,30.32,10.0,NNE,4.6,-,N/A,,Clear,30,2012-11-15 23:45:00
7:55 PM,41.0,35.6,81,30.31,10.0,North,4.6,-,N/A,,Clear,350,2012-11-16 00:55:00
8:15 PM,39.2,35.6,87,30.31,10.0,North,5.8,-,N/A,,Clear,350,2012-11-16 01:15:00
8:35 PM,39.2,35.6,87,30.31,10.0,Calm,Calm,-,N/A,,Clear,0,2012-11-16 01:35:00
8:55 PM,39.2,35.6,87,30.31,10.0,Calm,Calm,-,N/A,,Clear,0,2012-11-16 01:55:00
9:15 PM,37.4,35.6,93,30.32,10.0,Calm,Calm,-,N/A,,Clear,0,2012-11-16 02:15:00
9:35 PM,35.6,35.6,100,30.32,10.0,Calm,Calm,-,N/A,,Clear,0,2012-11-16 02:35:00
9:55 PM,33.8,33.8,100,30.32,10.0,Calm,Calm,-,N/A,,Clear,0,2012-11-16 02:55:00
10:15 PM,35.6,33.8,93,30.32,10.0,Calm,Calm,-,N/A,,Clear,0,2012-11-16 03:15:00
10:35 PM,35.6,35.6,100,30.32,10.0,Calm,Calm,-,N/A,,Clear,0,2012-11-16 03:35:00
10:55 PM,35.6,35.6,100,30.33,10.0,Calm,Calm,-,N/A,,Clear,0,2012-11-16 03:55:00
11:15 PM,35.6,33.8,93,30.32,10.0,Calm,Calm,-,N/A,,Clear,0,2012-11-16 04:15:00
11:35 PM,35.6,35.6,100,30.33,10.0,Calm,Calm,-,N/A,,Clear,0,2012-11-16 04:35:00
11:55 PM,35.6,35.6,100,30.33,10.0,Calm,Calm,-,N/A,,Clear,0,2012-11-16 04:55:00